Location: Hains Lake
(37.8540°N, 99.8578°W)
Time: 09:31:53
(UTC+00:00)

Tiros 1 despin weight - Pass Details

Date: 23 April 2021
Orbit: 593 x 642 km, 48.2° (Epoch: 07 May)

Event Time Altitude Azimuth Distance (km) Brightness Sun altitude
Rises 17:46:36 0° 291° (WNW) 2,855 ? 62.5°
Reaches altitude 10° 17:49:24 10° 274° (W) 1,940 ? 62.7°
Maximum altitude 17:52:37 20° 227° (SW) 1,405 ? 63.0°
Drops below altitude 10° 17:55:48 10° 181° (S) 1,917 ? 63.2°
Sets 17:58:33 0° 164° (SSE) 2,810 ? 63.5°
